Regional Weather Roundup
Issued by NWS San Angelo, TX

Home | Current Version | Previous Version | Text Only | Print | Product List | Glossary On
Versions: 1 2 3 4 5 6 7 8 9 10 11 12 13 14 15 16 17 18 19 20 21 22 23 24 25 26 27 28 29 30 31 32 33 34 35 36 37 38 39 40 41 42 43 44 45 46 47 48 49 50
000
ASUS44 KSJT 220710
RWRSJT
WEST CENTRAL TEXAS REGIONAL WEATHER ROUNDUP
NATIONAL WEATHER SERVICE SAN ANGELO TX
200 AM CDT MON SEP 22 2014

NOTE: "FAIR" INDICATES FEW OR NO CLOUDS BELOW 12,000 FEET WITH NO
SIGNIFICANT WEATHER AND/OR OBSTRUCTIONS TO VISIBILITY.

TXZ049-054-064>066-071>073-076>078-098-099-113-114-127-128-139-140-
154-155-168>170-220800
...LOCATIONS ACROSS WEST CENTRAL TEXAS...

CITY           SKY/WX    TMP DP  RH WIND       PRES   REMARKS
SAN ANGELO     CLOUDY    73  69  87 CALM      30.15S
ABILENE        MOCLDY    73  67  81 S3        30.17R
DYESS AFB      MOCLDY    71  62  71 SW1       30.16R
JUNCTION       MOCLDY    74  64  71 NE3       30.15S
SWEETWATER     MOCLDY    72  70  95 CALM      30.22R
BROWNWOOD      MOCLDY    70  68  94 CALM      30.14S
COLEMAN        PTSUNNY   71  66  84 CALM      30.16R
SONORA         PTCLDY    75  63  64 CALM      30.21R
OZONA          FAIR      73  63  68 SE5       30.20R
BRADY          CLEAR     72  64  78 CALM      30.15S
$$

TEXAS PANHANDLE/OKLAHOMA PANHANDLE

CITY           SKY/WX    TMP DP  RH WIND       PRES   REMARKS
AMARILLO       CLEAR     62  56  80 E8        30.31F
BORGER         PTCLDY    66  52  60 CALM      30.30R
CANADIAN       CLEAR     59  57  93 CALM      30.28R
DALHART        CLOUDY    65  56  72 SE9       30.34S
DUMAS          PTSUNNY   60  54  79 SE5       30.32S
GUYMON         NOT AVBL
HEREFORD       CLOUDY    64  64  97 E6        30.32S
PAMPA          SUNNY     59  51  74 SE6       30.30S
PERRYTON       CLEAR     59  47  63 SE6       30.30S
$$

SOUTHERN PANHANDLE/SOUTH PLAINS/ROLLING PLAINS

CITY           SKY/WX    TMP DP  RH WIND       PRES   REMARKS
LUBBOCK        CLOUDY    66  64  93 NE9       30.26S
SNYDER         CLOUDY    70  69  95 N8        30.21S
CHILDRESS      MOCLDY    72  53  51 E7        30.24R
SEMINOLE       CLOUDY    68  66  95 CALM      30.26S
$$

PERMIAN BASIN

CITY           SKY/WX    TMP DP  RH WIND       PRES   REMARKS
MIDLAND        CLOUDY    71  68  90 NE9       30.20F
ODESSA         CLOUDY    70  67  90 NE8       30.22S
WINK           CLOUDY    71  70  96 S3        30.19F
$$

FAR WEST/SOUTHWEST MOUNTAINS/TRANS PECOS

CITY           SKY/WX    TMP DP  RH WIND       PRES   REMARKS
ALPINE         CLOUDY    68  62  82 E7        30.30S
DRYDEN           N/A     79  70  74 NE6       30.13S
EL PASO        CLOUDY    72  63  73 E3        30.18S
FORT STOCKTON  CLOUDY    69  68  96 NE7       30.19F
GUADALUPE PASS LGT RAIN  62 N/A N/A E33         N/A  VSB 1/4
MARFA          CLOUDY    66  63  88 E3        30.28S
PECOS          CLOUDY    69  67  93 NE8       30.19R
$$

DALLAS/FORT WORTH METROPLEX

CITY           SKY/WX    TMP DP  RH WIND       PRES   REMARKS
DFW AIRPORT    MOCLDY    77  65  66 N12       30.12R
FTW MEACHAM    MOCLDY    77  68  73 NE12      30.12R
DAL-EXECUTIVE  MOCLDY    80  69  69 NE12      30.11R
GRAND PRAIRIE  MOCLDY    78  67  68 NE8       30.12R
ADDISON        MOCLDY    78  65  64 NE7       30.14R
MESQUITE       PTSUNNY   77  69  78 N7        30.11R
LANCASTER      PTSUNNY   77  68  72 NE9       30.11R
$$

NORTH CENTRAL TEXAS

CITY           SKY/WX    TMP DP  RH WIND       PRES   REMARKS
SHRMAN/DENISON CLOUDY    73  56  54 NE8       30.17R
GAINESVILLE    LGT RAIN  72  58  60 N6        30.18R
BRIDGEPORT     MOSUNNY   74  58  57 NE8       30.17R
DENTON         MOCLDY    76  58  53 NE10      30.14R
WAXAHACHIE     MOSUNNY   77  66  68 NE6       30.13R
GRANBURY       SUNNY     73  64  73 CALM      30.13R
$$

WESTERN NORTH TEXAS

CITY           SKY/WX    TMP DP  RH WIND       PRES   REMARKS
WICHITA FALLS  PTCLDY    70  59  68 E8        30.16S
VERNON         PTSUNNY   70  58  63 NE7       30.20R
BRECKENRIDGE   MOSUNNY   77  61  57 E5        30.15R
COMANCHE       MOCLDY    72  64  74 CALM      30.14S
$$

CENTRAL AND SOUTH CENTRAL TEXAS

CITY           SKY/WX    TMP DP  RH WIND       PRES   REMARKS
AUSTIN/BERGSTM PTCLDY    70  68  93 CALM      30.08R
WACO           PTCLDY    71  65  81 CALM      30.09R
HILLSBORO      SUNNY     71  59  65 N3        30.10R
TEMPLE         PTCLDY    70  64  83 NW3       30.09R
KILLEEN-GRAY   CLEAR     75  64  69 CALM      30.10S
FORT HOOD      PTCLDY    73  67  81 CALM      30.10S
GEORGETOWN     PTCLDY    70  66  88 CALM      30.10S
LAGO VISTA     FAIR      77  63  61 SE5       30.12S
SAN MARCOS     CLEAR     70  63  78 N5        30.09S
NEW BRAUNFELS  CLEAR     69  66  90 N5        30.07R
RANDOLPH AFB   PTCLDY    73  65  77 NW2       30.08S
SAN ANTONIO    PTCLDY    75  66  73 W5        30.09S
STINSON        CLEAR     72  66  81 CALM      30.06F
PLEASANTON     NOT AVBL
LA GRANGE      PTCLDY    73  71  93 CALM      30.05S
GIDDINGS       SUNNY     71  68  90 CALM      30.11R
$$

EAST TEXAS

CITY           SKY/WX    TMP DP  RH WIND       PRES   REMARKS
PARIS          PTCLDY    72  61  68 N9        30.14R
CLARKSVILLE    NOT AVBL
TYLER          CLEAR     76  69  79 N7        30.08S
LONGVIEW       CLEAR     77  69  76 NE6       30.07R
PALESTINE      SUNNY     71  68  90 CALM      30.08S
NACOGDOCHES    CLEAR     72  66  83 CALM      30.05S
$$

TEXAS HILL COUNTRY AND EDWARDS PLATEAU

CITY           SKY/WX    TMP DP  RH WIND       PRES   REMARKS
LLANO          SUNNY     72  66  83 CALM      30.15S
HORSESHOE BAY  FAIR      68  68 100 CALM      30.12R
KERRVILLE      PTCLDY    69  66  89 CALM      30.15S
FREDERICKSBRG  CLEAR     68  65  91 CALM      30.15R
ROCKSPRINGS    MOSUNNY   70  64  83 CALM      30.19S
HONDO          CLEAR     70  61  73 NE5       30.11S
UVALDE         SUNNY     73  68  83 E3        30.11R
DEL RIO        CLOUDY    78  73  84 E7        30.09R
$$

SOUTHEAST TEXAS

CITY           SKY/WX    TMP DP  RH WIND       PRES   REMARKS
COLLEGE STN    PTCLDY    74  69  85 CALM      30.06R
CALDWELL       SUNNY     70  70 100 CALM      30.10S
CROCKETT       SUNNY     72  72 100 CALM      30.09R
BRENHAM        PTCLDY    73  69  90 CALM      30.06S
HUNTSVILLE     CLEAR     73  68  84 CALM      30.06R
CONROE         PTCLDY    70  68  93 CALM      30.05S FOG
HOUSTON BUSH   PTCLDY    74  71  91 CALM      30.04R
HOUSTON HOBBY  PTCLDY    75  72  90 W3        30.03R
PERLAND        PTCLDY    75  72  90 CALM      30.04S
WHARTON        SUNNY     71  70  95 CALM      30.05S
$$

THE UPPER TEXAS COAST

CITY           SKY/WX    TMP DP  RH WIND       PRES   REMARKS
ORANGE         SUNNY    N/A N/A N/A CALM      30.04R HAZE
PORT ARTHUR    CLEAR     74  71  91 CALM      30.02S
GALVESTON      CLEAR     80  76  87 CALM      30.03S
ANGLETON       PTCLDY    73  72  96 CALM      30.04R
BAY CITY       SUNNY    N/A N/A N/A CALM      30.03S
$$

TEXAS COASTAL BEND, RIO GRANDE PLAINS DEEP SOUTH TEXAS

CITY           SKY/WX    TMP DP  RH WIND       PRES   REMARKS
VICTORIA       CLEAR     73  70  90 N3        30.04S
BEEVILLE       FAIR      73  71  94 NE3       30.04S
ROCKPORT       CLEAR     80  73  79 E9        30.01F
PORT ARANSAS   SUNNY     82  71  69 E10G18    30.01S
PORT LAVACA    SUNNY     74  72  91 CALM      30.03S
CORPUS CHRISTI PTCLDY    77  72  84 NE7       30.01F
KINGSVILLE NAS CLEAR     72  72 100 N5        30.01F
COTULLA        CLEAR     76  71  85 E3        30.07S
LAREDO         CLEAR     75  73  93 CALM      30.07S
BROWNSVILLE    MOCLDY    78  76  93 N3        29.96F
PORT ISABEL    NOT AVBL
HEBBRONVILLE     N/A     73  71  93 NE6       30.06S
MCALLEN        MOCLDY    78  76  93 N9        29.99S
WESLACO        RAIN      77  74  90 NE7       29.98S
FALFURRIAS     SUNNY    N/A N/A N/A NE3       30.01S
EDINBURG       PTSUNNY   79  74  86 NE7       30.00S
$$


USA.gov is the U.S. government's official web portal to all federal, state and local government web resources and services.